owner,sensor,date,latitude,longitude,vertical_datum,sea_water_practical_salinity,qcFlag 
DISL,ioos:station:DISL:DISL:1,2011-03-01T00:00:00Z,30.2513,-88.0778,7.23,20.57,1111122 
DISL,ioos:station:DISL:DISL:1,2011-03-01T00:30:00Z,30.2513,-88.0778,7.26,21.51,1111122 
DISL,ioos:station:DISL:DISL:1,2011-03-01T01:00:00Z,30.2513,-88.0778,7.28,20.87,1111122 
DISL,ioos:station:DISL:DISL:1,2011-03-01T01:30:00Z,30.2513,-88.0778,7.2,20.94,1111122 
DISL,ioos:station:DISL:DISL:1,2011-03-01T02:00:00Z,30.2513,-88.0778,7.13,20.55,1111122 
DISL,ioos:station:DISL:DISL:1,2011-03-01T02:30:00Z,30.2513,-88.0778,7.12,20.13,1111122 
DISL,ioos:station:DISL:DISL:1,2011-03-01T03:00:00Z,30.2513,-88.0778,7.17,20.53,1111122 
DISL,ioos:station:DISL:DISL:1,2011-03-01T03:30:00Z,30.2513,-88.0778,7.21,21.41,1111122 
DISL,ioos:station:DISL:DISL:1,2011-03-01T04:00:00Z,30.2513,-88.0778,7.06,22.18,1111122 
DISL,ioos:station:DISL:DISL:1,2011-03-01T04:30:00Z,30.2513,-88.0778,6.855,23.96,1111122 
DISL,ioos:station:DISL:DISL:1,2011-03-01T05:00:00Z,30.2513,-88.0778,6.89,22.1,1111122 
DISL,ioos:station:DISL:DISL:1,2011-03-01T05:30:00Z,30.2513,-88.0778,6.715,22.03,1111122 
DISL,ioos:station:DISL:DISL:1,2011-03-01T06:00:00Z,30.2513,-88.0778,6.648,21.67,1111122 
DISL,ioos:station:DISL:DISL:1,2011-03-01T06:30:00Z,30.2513,-88.0778,6.464,21.5,1111122 
DISL,ioos:station:DISL:DISL:1,2011-03-01T07:00:00Z,30.2513,-88.0778,6.413,21.47,1111122 
DISL,ioos:station:DISL:DISL:1,2011-03-01T07:30:00Z,30.2513,-88.0778,6.363,21.42,1111122 
DISL,ioos:station:DISL:DISL:1,2011-03-01T08:00:00Z,30.2513,-88.0778,6.074,20.46,1111122 
DISL,ioos:station:DISL:DISL:1,2011-03-01T08:30:00Z,30.2513,-88.0778,6.302,20.27,1111122 
DISL,ioos:station:DISL:DISL:1,2011-03-01T09:00:00Z,30.2513,-88.0778,6.02,20.24,1111122 
DISL,ioos:station:DISL:DISL:1,2011-03-01T09:30:00Z,30.2513,-88.0778,5.856,20.17,1111122 
DISL,ioos:station:DISL:DISL:1,2011-03-01T10:00:00Z,30.2513,-88.0778,5.771,19.78,1111122 
DISL,ioos:station:DISL:DISL:1,2011-03-01T10:30:00Z,30.2513,-88.0778,5.342,19.46,1111122 
DISL,ioos:station:DISL:DISL:1,2011-03-01T11:00:00Z,30.2513,-88.0778,5.195,18.9,1111122 
DISL,ioos:station:DISL:DISL:1,2011-03-01T11:30:00Z,30.2513,-88.0778,5.431,18.52,1111122 
DISL,ioos:station:DISL:DISL:1,2011-03-01T12:00:00Z,30.2513,-88.0778,5.4,18.35,1111122 
DISL,ioos:station:DISL:DISL:1,2011-03-01T12:30:00Z,30.2513,-88.0778,5.246,18.24,1111122 
DISL,ioos:station:DISL:DISL:1,2011-03-01T13:00:00Z,30.2513,-88.0778,5.316,18.25,1111122 
DISL,ioos:station:DISL:DISL:1,2011-03-01T13:30:00Z,30.2513,-88.0778,5.448,18.3,1111122 
DISL,ioos:station:DISL:DISL:1,2011-03-01T14:00:00Z,30.2513,-88.0778,5.347,18.33,1111122 
DISL,ioos:station:DISL:DISL:1,2011-03-01T14:30:00Z,30.2513,-88.0778,5.557,18.32,1111122 
DISL,ioos:station:DISL:DISL:1,2011-03-01T15:00:00Z,30.2513,-88.0778,5.501,18.36,1111122 
DISL,ioos:station:DISL:DISL:1,2011-03-01T15:30:00Z,30.2513,-88.0778,5.394,17.85,1111122 
DISL,ioos:station:DISL:DISL:1,2011-03-01T16:00:00Z,30.2513,-88.0778,5.485,17.11,1111122 
DISL,ioos:station:DISL:DISL:1,2011-03-01T16:30:00Z,30.2513,-88.0778,5.261,18.35,1111122 
DISL,ioos:station:DISL:DISL:1,2011-03-01T17:00:00Z,30.2513,-88.0778,5.482,18.48,1111122 
DISL,ioos:station:DISL:DISL:1,2011-03-01T17:30:00Z,30.2513,-88.0778,5.389,18.67,1111122 
DISL,ioos:station:DISL:DISL:1,2011-03-01T18:00:00Z,30.2513,-88.0778,5.58,18.9,1111122 
DISL,ioos:station:DISL:DISL:1,2011-03-01T18:30:00Z,30.2513,-88.0778,5.716,18.93,1111122 
DISL,ioos:station:DISL:DISL:1,2011-03-01T19:00:00Z,30.2513,-88.0778,5.742,18.98,1111122 
DISL,ioos:station:DISL:DISL:1,2011-03-01T19:30:00Z,30.2513,-88.0778,5.862,19.19,1111122 
DISL,ioos:station:DISL:DISL:1,2011-03-01T20:00:00Z,30.2513,-88.0778,5.891,19.88,1111122 
DISL,ioos:station:DISL:DISL:1,2011-03-01T20:30:00Z,30.2513,-88.0778,5.978,19.87,1111122 
DISL,ioos:station:DISL:DISL:1,2011-03-01T21:00:00Z,30.2513,-88.0778,6.066,19.97,1111122 
DISL,ioos:station:DISL:DISL:1,2011-03-01T21:30:00Z,30.2513,-88.0778,6.259,20.04,1111122 
DISL,ioos:station:DISL:DISL:1,2011-03-01T22:00:00Z,30.2513,-88.0778,6.292,20.31,1111122 
DISL,ioos:station:DISL:DISL:1,2011-03-01T22:30:00Z,30.2513,-88.0778,6.353,22.13,1111122 
DISL,ioos:station:DISL:DISL:1,2011-03-01T23:00:00Z,30.2513,-88.0778,6.458,22.4,1111122 
DISL,ioos:station:DISL:DISL:1,2011-03-01T23:30:00Z,30.2513,-88.0778,6.567,22.35,1111122 
DISL,ioos:station:DISL:DISL:1,2011-03-02T00:00:00Z,30.2513,-88.0778,6.617,22.18,1111122 
DISL,ioos:station:DISL:DISL:1,2011-03-02T00:30:00Z,30.2513,-88.0778,6.719,21.49,1111122 
DISL,ioos:station:DISL:DISL:1,2011-03-02T01:00:00Z,30.2513,-88.0778,6.707,21.23,1111122 
DISL,ioos:station:DISL:DISL:1,2011-03-02T01:30:00Z,30.2513,-88.0778,6.84,21.4,1111122 
DISL,ioos:station:DISL:DISL:1,2011-03-02T02:00:00Z,30.2513,-88.0778,6.902,21.42,1111122 
DISL,ioos:station:DISL:DISL:1,2011-03-02T02:30:00Z,30.2513,-88.0778,6.932,21.54,1111122 
DISL,ioos:station:DISL:DISL:1,2011-03-02T03:00:00Z,30.2513,-88.0778,6.995,20.24,1111122 
DISL,ioos:station:DISL:DISL:1,2011-03-02T03:30:00Z,30.2513,-88.0778,6.899,18.5,1111122 
DISL,ioos:station:DISL:DISL:1,2011-03-02T04:00:00Z,30.2513,-88.0778,6.959,18.41,1111122 
DISL,ioos:station:DISL:DISL:1,2011-03-02T04:30:00Z,30.2513,-88.0778,6.915,18.14,1111122 
DISL,ioos:station:DISL:DISL:1,2011-03-02T05:00:00Z,30.2513,-88.0778,6.827,16.49,1111122 
DISL,ioos:station:DISL:DISL:1,2011-03-02T05:30:00Z,30.2513,-88.0778,6.788,15.94,1111122 
DISL,ioos:station:DISL:DISL:1,2011-03-02T06:00:00Z,30.2513,-88.0778,6.709,15.88,1111122 
DISL,ioos:station:DISL:DISL:1,2011-03-02T06:30:00Z,30.2513,-88.0778,6.605,16.1,1111122 
DISL,ioos:station:DISL:DISL:1,2011-03-02T07:00:00Z,30.2513,-88.0778,6.48,16.81,1111122 
DISL,ioos:station:DISL:DISL:1,2011-03-02T07:30:00Z,30.2513,-88.0778,6.474,16.91,1111122 
DISL,ioos:station:DISL:DISL:1,2011-03-02T08:00:00Z,30.2513,-88.0778,6.328,17.02,1111122 
DISL,ioos:station:DISL:DISL:1,2011-03-02T08:30:00Z,30.2513,-88.0778,6.264,17.32,1111122 
DISL,ioos:station:DISL:DISL:1,2011-03-02T09:00:00Z,30.2513,-88.0778,6.169,17.48,1111122 
DISL,ioos:station:DISL:DISL:1,2011-03-02T09:30:00Z,30.2513,-88.0778,6.25,17.61,1111122 
DISL,ioos:station:DISL:DISL:1,2011-03-02T10:00:00Z,30.2513,-88.0778,6.105,17.64,1111122 
DISL,ioos:station:DISL:DISL:1,2011-03-02T10:30:00Z,30.2513,-88.0778,6.168,17.63,1111122 
DISL,ioos:station:DISL:DISL:1,2011-03-02T11:00:00Z,30.2513,-88.0778,5.638,17.65,1111122 
DISL,ioos:station:DISL:DISL:1,2011-03-02T11:30:00Z,30.2513,-88.0778,5.855,17.7,1111122 
DISL,ioos:station:DISL:DISL:1,2011-03-02T12:00:00Z,30.2513,-88.0778,5.86,17.68,1111122 
DISL,ioos:station:DISL:DISL:1,2011-03-02T12:30:00Z,30.2513,-88.0778,5.737,17.62,1111122 
DISL,ioos:station:DISL:DISL:1,2011-03-02T13:00:00Z,30.2513,-88.0778,5.55,17.42,1111122 
DISL,ioos:station:DISL:DISL:1,2011-03-02T13:30:00Z,30.2513,-88.0778,5.693,17.32,1111122 
DISL,ioos:station:DISL:DISL:1,2011-03-02T14:00:00Z,30.2513,-88.0778,5.709,17.24,1111122 
DISL,ioos:station:DISL:DISL:1,2011-03-02T14:30:00Z,30.2513,-88.0778,5.719,17.21,1111122 
DISL,ioos:station:DISL:DISL:1,2011-03-02T15:00:00Z,30.2513,-88.0778,5.74,17.17,1111122 
DISL,ioos:station:DISL:DISL:1,2011-03-02T15:30:00Z,30.2513,-88.0778,5.772,17.38,1111122 
DISL,ioos:station:DISL:DISL:1,2011-03-02T16:00:00Z,30.2513,-88.0778,5.725,17.78,1111122 
DISL,ioos:station:DISL:DISL:1,2011-03-02T16:30:00Z,30.2513,-88.0778,5.791,18.45,1111122 
DISL,ioos:station:DISL:DISL:1,2011-03-02T17:00:00Z,30.2513,-88.0778,5.79,18.7,1111122 
DISL,ioos:station:DISL:DISL:1,2011-03-02T17:30:00Z,30.2513,-88.0778,5.807,18.74,1111122 
DISL,ioos:station:DISL:DISL:1,2011-03-02T18:00:00Z,30.2513,-88.0778,5.777,18.67,1111122 
DISL,ioos:station:DISL:DISL:1,2011-03-02T18:30:00Z,30.2513,-88.0778,5.821,18.76,1111122 
DISL,ioos:station:DISL:DISL:1,2011-03-02T19:00:00Z,30.2513,-88.0778,5.801,18.74,1111122 
DISL,ioos:station:DISL:DISL:1,2011-03-02T19:30:00Z,30.2513,-88.0778,5.853,18.78,1111122 
DISL,ioos:station:DISL:DISL:1,2011-03-02T20:00:00Z,30.2513,-88.0778,5.866,18.72,1111122 
DISL,ioos:station:DISL:DISL:1,2011-03-02T20:30:00Z,30.2513,-88.0778,5.908,18.7,1111122 
DISL,ioos:station:DISL:DISL:1,2011-03-02T21:00:00Z,30.2513,-88.0778,5.934,18.66,1111122 
DISL,ioos:station:DISL:DISL:1,2011-03-02T21:30:00Z,30.2513,-88.0778,5.939,18.8,1111122 
DISL,ioos:station:DISL:DISL:1,2011-03-02T22:00:00Z,30.2513,-88.0778,6.025,18.82,1111122 
DISL,ioos:station:DISL:DISL:1,2011-03-02T22:30:00Z,30.2513,-88.0778,6.066,18.79,1111122 
DISL,ioos:station:DISL:DISL:1,2011-03-02T23:00:00Z,30.2513,-88.0778,6.103,19.16,1111122 
DISL,ioos:station:DISL:DISL:1,2011-03-02T23:30:00Z,30.2513,-88.0778,6.138,19.96,1111122 
DISL,ioos:station:DISL:DISL:1,2011-03-03T00:00:00Z,30.2513,-88.0778,6.192,21.68,1111122 
DISL,ioos:station:DISL:DISL:1,2011-03-03T00:30:00Z,30.2513,-88.0778,6.25,22.96,1111122 
DISL,ioos:station:DISL:DISL:1,2011-03-03T01:00:00Z,30.2513,-88.0778,6.307,23.49,1111122 
DISL,ioos:station:DISL:DISL:1,2011-03-03T01:30:00Z,30.2513,-88.0778,6.339,23.9,1111122 
DISL,ioos:station:DISL:DISL:1,2011-03-03T02:00:00Z,30.2513,-88.0778,6.352,22.86,1111122 
DISL,ioos:station:DISL:DISL:1,2011-03-03T02:30:00Z,30.2513,-88.0778,6.419,22.86,1111122 
DISL,ioos:station:DISL:DISL:1,2011-03-03T03:00:00Z,30.2513,-88.0778,6.414,22.87,1111122 
DISL,ioos:station:DISL:DISL:1,2011-03-03T03:30:00Z,30.2513,-88.0778,6.477,21.37,1111122 
DISL,ioos:station:DISL:DISL:1,2011-03-03T04:00:00Z,30.2513,-88.0778,6.534,21.82,1111122 
DISL,ioos:station:DISL:DISL:1,2011-03-03T04:30:00Z,30.2513,-88.0778,6.591,18.7,1111122 
DISL,ioos:station:DISL:DISL:1,2011-03-03T05:00:00Z,30.2513,-88.0778,6.582,18.51,1111122 
DISL,ioos:station:DISL:DISL:1,2011-03-03T05:30:00Z,30.2513,-88.0778,6.598,18.57,1111122 
DISL,ioos:station:DISL:DISL:1,2011-03-03T06:00:00Z,30.2513,-88.0778,6.553,18.54,1111122 
DISL,ioos:station:DISL:DISL:1,2011-03-03T06:30:00Z,30.2513,-88.0778,6.472,18.34,1111122 
DISL,ioos:station:DISL:DISL:1,2011-03-03T07:00:00Z,30.2513,-88.0778,6.426,17.96,1111122 
DISL,ioos:station:DISL:DISL:1,2011-03-03T07:30:00Z,30.2513,-88.0778,6.362,17.88,1111122 
DISL,ioos:station:DISL:DISL:1,2011-03-03T08:00:00Z,30.2513,-88.0778,6.308,17.76,1111122 
DISL,ioos:station:DISL:DISL:1,2011-03-03T08:30:00Z,30.2513,-88.0778,6.324,17.14,1111122 
DISL,ioos:station:DISL:DISL:1,2011-03-03T09:00:00Z,30.2513,-88.0778,6.424,16.47,1111122 
DISL,ioos:station:DISL:DISL:1,2011-03-03T09:30:00Z,30.2513,-88.0778,6.387,16.29,1111122 
DISL,ioos:station:DISL:DISL:1,2011-03-03T10:00:00Z,30.2513,-88.0778,6.226,16.17,1111122 
DISL,ioos:station:DISL:DISL:1,2011-03-03T10:30:00Z,30.2513,-88.0778,6.193,15.84,1111122 
DISL,ioos:station:DISL:DISL:1,2011-03-03T11:00:00Z,30.2513,-88.0778,6.128,15.74,1111122 
DISL,ioos:station:DISL:DISL:1,2011-03-03T11:30:00Z,30.2513,-88.0778,6.145,15.71,1111122 
DISL,ioos:station:DISL:DISL:1,2011-03-03T12:00:00Z,30.2513,-88.0778,6.087,15.71,1111122 
DISL,ioos:station:DISL:DISL:1,2011-03-03T12:30:00Z,30.2513,-88.0778,6.188,15.77,1111122 
DISL,ioos:station:DISL:DISL:1,2011-03-03T13:00:00Z,30.2513,-88.0778,6.27,15.78,1111122 
DISL,ioos:station:DISL:DISL:1,2011-03-03T13:30:00Z,30.2513,-88.0778,6.192,16.12,1111122 
DISL,ioos:station:DISL:DISL:1,2011-03-03T14:00:00Z,30.2513,-88.0778,6.172,18.75,1111122 
DISL,ioos:station:DISL:DISL:1,2011-03-03T14:30:00Z,30.2513,-88.0778,6.39,22.33,1111122 
DISL,ioos:station:DISL:DISL:1,2011-03-03T15:00:00Z,30.2513,-88.0778,6.227,22.52,1111122 
DISL,ioos:station:DISL:DISL:1,2011-03-03T15:30:00Z,30.2513,-88.0778,6.254,21.71,1111122 
DISL,ioos:station:DISL:DISL:1,2011-03-03T16:00:00Z,30.2513,-88.0778,6.281,20.84,1111122 
DISL,ioos:station:DISL:DISL:1,2011-03-03T16:30:00Z,30.2513,-88.0778,6.247,20.26,1111122 
DISL,ioos:station:DISL:DISL:1,2011-03-03T17:00:00Z,30.2513,-88.0778,6.381,19.83,1111122 
DISL,ioos:station:DISL:DISL:1,2011-03-03T17:30:00Z,30.2513,-88.0778,6.472,19.59,1111122 
DISL,ioos:station:DISL:DISL:1,2011-03-03T18:00:00Z,30.2513,-88.0778,6.329,19.62,1111122 
DISL,ioos:station:DISL:DISL:1,2011-03-03T18:30:00Z,30.2513,-88.0778,6.443,19.88,1111122 
DISL,ioos:station:DISL:DISL:1,2011-03-03T19:00:00Z,30.2513,-88.0778,6.482,19.99,1111122 
DISL,ioos:station:DISL:DISL:1,2011-03-03T19:30:00Z,30.2513,-88.0778,6.336,21.04,1111122 
DISL,ioos:station:DISL:DISL:1,2011-03-03T20:00:00Z,30.2513,-88.0778,6.536,21.6,1111122 
DISL,ioos:station:DISL:DISL:1,2011-03-03T20:30:00Z,30.2513,-88.0778,6.54,21.96,1111122 
DISL,ioos:station:DISL:DISL:1,2011-03-03T21:00:00Z,30.2513,-88.0778,6.617,22.27,1111122 
DISL,ioos:station:DISL:DISL:1,2011-03-03T21:30:00Z,30.2513,-88.0778,6.601,23.02,1111122 
DISL,ioos:station:DISL:DISL:1,2011-03-03T22:00:00Z,30.2513,-88.0778,6.419,23.38,1111122 
DISL,ioos:station:DISL:DISL:1,2011-03-03T22:30:00Z,30.2513,-88.0778,6.633,24.05,1111122 
DISL,ioos:station:DISL:DISL:1,2011-03-03T23:00:00Z,30.2513,-88.0778,6.628,24.75,1111122 
DISL,ioos:station:DISL:DISL:1,2011-03-03T23:30:00Z,30.2513,-88.0778,6.617,25.12,1111122 
DISL,ioos:station:DISL:DISL:1,2011-03-04T00:00:00Z,30.2513,-88.0778,6.715,25.21,1111122 
DISL,ioos:station:DISL:DISL:1,2011-03-04T00:30:00Z,30.2513,-88.0778,6.78,25.21,1111122 
DISL,ioos:station:DISL:DISL:1,2011-03-04T01:00:00Z,30.2513,-88.0778,6.703,25.24,1111122 
DISL,ioos:station:DISL:DISL:1,2011-03-04T01:30:00Z,30.2513,-88.0778,6.76,25.23,1111122 
DISL,ioos:station:DISL:DISL:1,2011-03-04T02:00:00Z,30.2513,-88.0778,6.789,25.15,1111122 
DISL,ioos:station:DISL:DISL:1,2011-03-04T02:30:00Z,30.2513,-88.0778,6.79,25.09,1111122 
DISL,ioos:station:DISL:DISL:1,2011-03-04T03:00:00Z,30.2513,-88.0778,6.806,24.84,1111122 
DISL,ioos:station:DISL:DISL:1,2011-03-04T03:30:00Z,30.2513,-88.0778,6.797,24.94,1111122 
DISL,ioos:station:DISL:DISL:1,2011-03-04T04:00:00Z,30.2513,-88.0778,6.868,23.5,1111122 
DISL,ioos:station:DISL:DISL:1,2011-03-04T04:30:00Z,30.2513,-88.0778,6.798,22.46,1111122 
DISL,ioos:station:DISL:DISL:1,2011-03-04T05:00:00Z,30.2513,-88.0778,6.79,22.05,1111122 
DISL,ioos:station:DISL:DISL:1,2011-03-04T05:30:00Z,30.2513,-88.0778,6.639,21.7,1111122 
DISL,ioos:station:DISL:DISL:1,2011-03-04T06:00:00Z,30.2513,-88.0778,6.723,20.47,1111122 
DISL,ioos:station:DISL:DISL:1,2011-03-04T06:30:00Z,30.2513,-88.0778,6.684,19.87,1111122 
DISL,ioos:station:DISL:DISL:1,2011-03-04T07:00:00Z,30.2513,-88.0778,6.638,19.33,1111122 
DISL,ioos:station:DISL:DISL:1,2011-03-04T07:30:00Z,30.2513,-88.0778,6.627,19.19,1111122 
DISL,ioos:station:DISL:DISL:1,2011-03-04T08:00:00Z,30.2513,-88.0778,6.593,19.27,1111122 
DISL,ioos:station:DISL:DISL:1,2011-03-04T08:30:00Z,30.2513,-88.0778,6.626,19.41,1111122 
DISL,ioos:station:DISL:DISL:1,2011-03-04T09:00:00Z,30.2513,-88.0778,6.45,19.86,1111122 
DISL,ioos:station:DISL:DISL:1,2011-03-04T09:30:00Z,30.2513,-88.0778,6.385,20.39,1111122 
DISL,ioos:station:DISL:DISL:1,2011-03-04T10:00:00Z,30.2513,-88.0778,5.841,21.36,1111122 
DISL,ioos:station:DISL:DISL:1,2011-03-04T10:30:00Z,30.2513,-88.0778,6.073,21.43,1111122 
DISL,ioos:station:DISL:DISL:1,2011-03-04T11:00:00Z,30.2513,-88.0778,6.314,21.87,1111122 
DISL,ioos:station:DISL:DISL:1,2011-03-04T11:30:00Z,30.2513,-88.0778,6.338,21.71,1111122 
DISL,ioos:station:DISL:DISL:1,2011-03-04T12:00:00Z,30.2513,-88.0778,6.244,21.7,1111122 
DISL,ioos:station:DISL:DISL:1,2011-03-04T12:30:00Z,30.2513,-88.0778,6.177,21.77,1111122 
DISL,ioos:station:DISL:DISL:1,2011-03-04T13:00:00Z,30.2513,-88.0778,6.287,21.85,1111122 
DISL,ioos:station:DISL:DISL:1,2011-03-04T13:30:00Z,30.2513,-88.0778,6.343,21.97,1111122 
DISL,ioos:station:DISL:DISL:1,2011-03-04T14:00:00Z,30.2513,-88.0778,6.412,21.94,1111122 
DISL,ioos:station:DISL:DISL:1,2011-03-04T14:30:00Z,30.2513,-88.0778,6.468,22.38,1111122 
DISL,ioos:station:DISL:DISL:1,2011-03-04T15:00:00Z,30.2513,-88.0778,6.471,22.96,1111122 
DISL,ioos:station:DISL:DISL:1,2011-03-04T15:30:00Z,30.2513,-88.0778,6.399,23.03,1111122 
DISL,ioos:station:DISL:DISL:1,2011-03-04T16:00:00Z,30.2513,-88.0778,6.301,22.79,1111122 
DISL,ioos:station:DISL:DISL:1,2011-03-04T16:30:00Z,30.2513,-88.0778,6.385,23.02,1111122 
DISL,ioos:station:DISL:DISL:1,2011-03-04T17:00:00Z,30.2513,-88.0778,6.658,23.15,1111122 
DISL,ioos:station:DISL:DISL:1,2011-03-04T17:30:00Z,30.2513,-88.0778,6.233,23.43,1111122 
DISL,ioos:station:DISL:DISL:1,2011-03-04T18:00:00Z,30.2513,-88.0778,6.575,23.29,1111122 
DISL,ioos:station:DISL:DISL:1,2011-03-04T18:30:00Z,30.2513,-88.0778,6.381,23.01,1111122 
DISL,ioos:station:DISL:DISL:1,2011-03-04T19:00:00Z,30.2513,-88.0778,6.658,22.8,1111122 
DISL,ioos:station:DISL:DISL:1,2011-03-04T19:30:00Z,30.2513,-88.0778,6.654,22.51,1111122 
DISL,ioos:station:DISL:DISL:1,2011-03-04T20:00:00Z,30.2513,-88.0778,6.743,22.28,1111122 
DISL,ioos:station:DISL:DISL:1,2011-03-04T20:30:00Z,30.2513,-88.0778,6.587,22.06,1111122 
DISL,ioos:station:DISL:DISL:1,2011-03-04T21:00:00Z,30.2513,-88.0778,6.722,21.88,1111122 
DISL,ioos:station:DISL:DISL:1,2011-03-04T21:30:00Z,30.2513,-88.0778,6.822,21.89,1111122 
DISL,ioos:station:DISL:DISL:1,2011-03-04T22:00:00Z,30.2513,-88.0778,7.01,22.3,1111122 
DISL,ioos:station:DISL:DISL:1,2011-03-04T22:30:00Z,30.2513,-88.0778,6.913,22.72,1111122 
DISL,ioos:station:DISL:DISL:1,2011-03-04T23:00:00Z,30.2513,-88.0778,6.9,23.39,1111122 
DISL,ioos:station:DISL:DISL:1,2011-03-04T23:30:00Z,30.2513,-88.0778,6.937,24.01,1111122 
DISL,ioos:station:DISL:DISL:1,2011-03-05T00:00:00Z,30.2513,-88.0778,7.02,24.2,1111122 
DISL,ioos:station:DISL:DISL:1,2011-03-05T00:30:00Z,30.2513,-88.0778,7.13,24.26,1111122 
DISL,ioos:station:DISL:DISL:1,2011-03-05T01:00:00Z,30.2513,-88.0778,7.13,24.23,1111122 
DISL,ioos:station:DISL:DISL:1,2011-03-05T01:30:00Z,30.2513,-88.0778,7.42,24.08,1111122 
DISL,ioos:station:DISL:DISL:1,2011-03-05T02:00:00Z,30.2513,-88.0778,7.25,23.89,1111122 
DISL,ioos:station:DISL:DISL:1,2011-03-05T02:30:00Z,30.2513,-88.0778,7.27,23.72,1111122 
DISL,ioos:station:DISL:DISL:1,2011-03-05T03:00:00Z,30.2513,-88.0778,7.23,23.58,1111122 
DISL,ioos:station:DISL:DISL:1,2011-03-05T03:30:00Z,30.2513,-88.0778,7.33,23.6,1111122 
DISL,ioos:station:DISL:DISL:1,2011-03-05T04:00:00Z,30.2513,-88.0778,7.46,23.67,1111122 
DISL,ioos:station:DISL:DISL:1,2011-03-05T04:30:00Z,30.2513,-88.0778,7.53,23.68,1111122 
DISL,ioos:station:DISL:DISL:1,2011-03-05T05:00:00Z,30.2513,-88.0778,7.39,23.66,1111122 
DISL,ioos:station:DISL:DISL:1,2011-03-05T05:30:00Z,30.2513,-88.0778,7.35,23.84,1111122 
DISL,ioos:station:DISL:DISL:1,2011-03-05T06:00:00Z,30.2513,-88.0778,7.4,23.7,1111122 
DISL,ioos:station:DISL:DISL:1,2011-03-05T06:30:00Z,30.2513,-88.0778,7.3,23.68,1111122 
DISL,ioos:station:DISL:DISL:1,2011-03-05T07:00:00Z,30.2513,-88.0778,7.35,23.5,1111122 
DISL,ioos:station:DISL:DISL:1,2011-03-05T07:30:00Z,30.2513,-88.0778,7.08,23.35,1111122 
DISL,ioos:station:DISL:DISL:1,2011-03-05T08:00:00Z,30.2513,-88.0778,7.01,23.34,1111122 
DISL,ioos:station:DISL:DISL:1,2011-03-05T08:30:00Z,30.2513,-88.0778,7.08,23.56,1111122 
DISL,ioos:station:DISL:DISL:1,2011-03-05T09:00:00Z,30.2513,-88.0778,7.48,24.39,1111122 
DISL,ioos:station:DISL:DISL:1,2011-03-05T09:30:00Z,30.2513,-88.0778,7.23,24.67,1111122 
DISL,ioos:station:DISL:DISL:1,2011-03-05T10:00:00Z,30.2513,-88.0778,6.988,24.77,1111122 
DISL,ioos:station:DISL:DISL:1,2011-03-05T10:30:00Z,30.2513,-88.0778,7.08,24.67,1111122 
DISL,ioos:station:DISL:DISL:1,2011-03-05T11:00:00Z,30.2513,-88.0778,6.979,24.75,1111122 
DISL,ioos:station:DISL:DISL:1,2011-03-05T11:30:00Z,30.2513,-88.0778,6.953,24.71,1111122 
DISL,ioos:station:DISL:DISL:1,2011-03-05T12:00:00Z,30.2513,-88.0778,7.02,24.71,1111122 
DISL,ioos:station:DISL:DISL:1,2011-03-05T12:30:00Z,30.2513,-88.0778,6.938,24.71,1111122 
DISL,ioos:station:DISL:DISL:1,2011-03-05T13:00:00Z,30.2513,-88.0778,7.02,24.66,1111122 
DISL,ioos:station:DISL:DISL:1,2011-03-05T13:30:00Z,30.2513,-88.0778,6.978,24.68,1111122 
DISL,ioos:station:DISL:DISL:1,2011-03-05T14:00:00Z,30.2513,-88.0778,6.876,24.67,1111122 
DISL,ioos:station:DISL:DISL:1,2011-03-05T14:30:00Z,30.2513,-88.0778,6.867,24.78,1111122 
DISL,ioos:station:DISL:DISL:1,2011-03-05T15:00:00Z,30.2513,-88.0778,6.857,24.84,1111122 
DISL,ioos:station:DISL:DISL:1,2011-03-05T15:30:00Z,30.2513,-88.0778,6.942,24.83,1111122 
DISL,ioos:station:DISL:DISL:1,2011-03-05T16:00:00Z,30.2513,-88.0778,6.938,24.87,1111122 
DISL,ioos:station:DISL:DISL:1,2011-03-05T16:30:00Z,30.2513,-88.0778,7.03,24.98,1111122 
DISL,ioos:station:DISL:DISL:1,2011-03-05T17:00:00Z,30.2513,-88.0778,6.996,24.97,1111122 
DISL,ioos:station:DISL:DISL:1,2011-03-05T17:30:00Z,30.2513,-88.0778,6.988,24.95,1111122 
DISL,ioos:station:DISL:DISL:1,2011-03-05T18:00:00Z,30.2513,-88.0778,6.902,24.87,1111122 
DISL,ioos:station:DISL:DISL:1,2011-03-05T18:30:00Z,30.2513,-88.0778,7.0,24.89,1111122 
DISL,ioos:station:DISL:DISL:1,2011-03-05T19:00:00Z,30.2513,-88.0778,6.929,24.8,1111122 
DISL,ioos:station:DISL:DISL:1,2011-03-05T19:30:00Z,30.2513,-88.0778,6.84,24.56,1111122 
DISL,ioos:station:DISL:DISL:1,2011-03-05T20:00:00Z,30.2513,-88.0778,6.964,24.47,1111122 
DISL,ioos:station:DISL:DISL:1,2011-03-05T20:30:00Z,30.2513,-88.0778,6.964,24.4,1111122 
DISL,ioos:station:DISL:DISL:1,2011-03-05T21:00:00Z,30.2513,-88.0778,6.92,24.23,1111122 
DISL,ioos:station:DISL:DISL:1,2011-03-05T21:30:00Z,30.2513,-88.0778,6.942,24.16,1111122 
DISL,ioos:station:DISL:DISL:1,2011-03-05T22:00:00Z,30.2513,-88.0778,7.0,24.32,1111122 
DISL,ioos:station:DISL:DISL:1,2011-03-05T22:30:00Z,30.2513,-88.0778,6.958,24.52,1111122 
DISL,ioos:station:DISL:DISL:1,2011-03-05T23:00:00Z,30.2513,-88.0778,7.07,24.48,1111122 
DISL,ioos:station:DISL:DISL:1,2011-03-05T23:30:00Z,30.2513,-88.0778,6.921,24.14,1111122 
DISL,ioos:station:DISL:DISL:1,2011-03-06T00:00:00Z,30.2513,-88.0778,6.788,24.21,1111122 
DISL,ioos:station:DISL:DISL:1,2011-03-06T00:30:00Z,30.2513,-88.0778,6.837,24.04,1111122 
DISL,ioos:station:DISL:DISL:1,2011-03-06T01:00:00Z,30.2513,-88.0778,6.987,23.85,1111122 
DISL,ioos:station:DISL:DISL:1,2011-03-06T01:30:00Z,30.2513,-88.0778,7.04,23.88,1111122 
DISL,ioos:station:DISL:DISL:1,2011-03-06T02:00:00Z,30.2513,-88.0778,7.35,24.12,1111122 
DISL,ioos:station:DISL:DISL:1,2011-03-06T02:30:00Z,30.2513,-88.0778,7.32,24.15,1111122 
DISL,ioos:station:DISL:DISL:1,2011-03-06T03:00:00Z,30.2513,-88.0778,7.17,23.96,1111122 
DISL,ioos:station:DISL:DISL:1,2011-03-06T03:30:00Z,30.2513,-88.0778,7.27,24.33,1111122 
DISL,ioos:station:DISL:DISL:1,2011-03-06T04:00:00Z,30.2513,-88.0778,7.47,24.39,1111122 
DISL,ioos:station:DISL:DISL:1,2011-03-06T04:30:00Z,30.2513,-88.0778,7.19,24.01,1111122 
DISL,ioos:station:DISL:DISL:1,2011-03-06T05:00:00Z,30.2513,-88.0778,7.11,24.32,1111122 
DISL,ioos:station:DISL:DISL:1,2011-03-06T05:30:00Z,30.2513,-88.0778,7.15,24.14,1111122 
DISL,ioos:station:DISL:DISL:1,2011-03-06T06:00:00Z,30.2513,-88.0778,6.971,24.05,1111122 
DISL,ioos:station:DISL:DISL:1,2011-03-06T06:30:00Z,30.2513,-88.0778,6.9,23.98,1111122 
DISL,ioos:station:DISL:DISL:1,2011-03-06T07:00:00Z,30.2513,-88.0778,6.73,23.89,1111122 
DISL,ioos:station:DISL:DISL:1,2011-03-06T07:30:00Z,30.2513,-88.0778,6.838,23.82,1111122 
DISL,ioos:station:DISL:DISL:1,2011-03-06T08:00:00Z,30.2513,-88.0778,6.716,23.16,1111122 
DISL,ioos:station:DISL:DISL:1,2011-03-06T08:30:00Z,30.2513,-88.0778,6.889,22.86,1111122 
DISL,ioos:station:DISL:DISL:1,2011-03-06T09:00:00Z,30.2513,-88.0778,6.42,23.73,1111122 
DISL,ioos:station:DISL:DISL:1,2011-03-06T09:30:00Z,30.2513,-88.0778,6.586,23.67,1111122 
DISL,ioos:station:DISL:DISL:1,2011-03-06T10:00:00Z,30.2513,-88.0778,6.375,20.3,1111122 
DISL,ioos:station:DISL:DISL:1,2011-03-06T10:30:00Z,30.2513,-88.0778,6.294,20.9,1111122 
DISL,ioos:station:DISL:DISL:1,2011-03-06T11:00:00Z,30.2513,-88.0778,6.38,20.22,1111122 
DISL,ioos:station:DISL:DISL:1,2011-03-06T11:30:00Z,30.2513,-88.0778,6.081,20.93,1111122 
DISL,ioos:station:DISL:DISL:1,2011-03-06T12:00:00Z,30.2513,-88.0778,6.344,22.08,1111122 
DISL,ioos:station:DISL:DISL:1,2011-03-06T12:30:00Z,30.2513,-88.0778,6.355,22.91,1111122 
DISL,ioos:station:DISL:DISL:1,2011-03-06T13:00:00Z,30.2513,-88.0778,6.307,22.62,1111122 
DISL,ioos:station:DISL:DISL:1,2011-03-06T13:30:00Z,30.2513,-88.0778,6.421,16.74,1111122 
DISL,ioos:station:DISL:DISL:1,2011-03-06T14:00:00Z,30.2513,-88.0778,6.2,19.0,1111122 